Starlink 31083

operational
NORAD ID: 58670 Int'l Des: 2023-211 Owner: SPXS Country: US Constellation: starlink
LEOCIRCULAR

About Starlink 31083

Description loading...

Live Position

Loading 3D Globe...

Upcoming Passes

Altitude History

Altitude vs Time

uPlot chart will show altitude changes over time

Two-Line Element Set

1 58670U 23211D 25354.80055772 -.00001038 00000-0 -28214-4 0 9993
2 58670 42.9991 170.4525 0000903 264.8932 95.1817 15.27569954110402
Epoch: Dec 20, 2025 • Age: 6 hours

Current Status

Altitude 490.7 km
Velocity 7.62 km/s
Sub-Earth Point -30.27°S, 75.92°W
Launch Date Dec 29, 2023
Age 1.9 years
Type internet

Technical Details

Classification Payload
Mass 730.00 kg
Dry Mass 700.00 kg
Total Mass 730.00 kg
Length 0.30 m
Diameter 4.10 m
Span 29.00 m
Shape Box + pan
Manufacturer SPXS
Bus Type Starlink V2M
Phase Status In Orbit
Owner/State SPXS/US

Large Constellations

Loading constellations...